User: anonymous   Login
Location: Broad Creek
(39.7000°N, 76.2570°W)
Time: 09:22:39
(UTC-05:00)
Language:

ETS-7 - Orbit

View from above orbital plane
View from above orbital plane
View from above satellite
View from above satellite

Ground track
Ground track

The orbit data is extracted from the following two-line orbital elements,

1 25064U 97074B   15026.92139464  .00028945  00000-0  33881-3 0  3657
2 25064 034.9570 234.1447 0004850 012.4895 126.2633 15.60506159955985
Epoch (UTC): 26 January 2015 22:06:48
Eccentricity: 0.0004850
inclination: 34.9570°
perigee height: 383 km
apogee height: 389 km
right ascension of ascending node: 234.1447°
argument of perigee: 12.4895°
revolutions per day: 15.60506159
mean anomaly at epoch: 126.2633°
orbit number at epoch: 95598

The dashed part of the orbit path shows where the satellite is in the earth's shadow,  

DLR